Regional Weather Roundup
Issued by NWS

Home | Current Version | Previous Version | Graphics & Text | Print | Product List | Glossary On
Versions: 1 2 3 4 5 6 7 8 9 10 11 12 13 14 15 16 17 18 19 20 21 22 23 24 25 26 27 28 29 30 31 32 33 34 35 36 37 38 39 40 41 42 43 44 45 46 47 48 49 50
000
ASUS43 KMKX 222100
RWRWI

WISCONSIN REGIONAL WEATHER ROUNDUP
NATIONAL WEATHER SERVICE MILWAUKEE/SULLIVAN WI
400 PM CDT TUE JUL 22 2014

NOTE: "FAIR" INDICATES FEW OR NO CLOUDS BELOW 12,000 FEET WITH NO
SIGNIFICANT WEATHER AND/OR OBSTRUCTIONS TO VISIBILITY.

WIZ001-002-006>008-014>016-023>028-222200-
NORTHWEST WISCONSIN

CITY           SKY/WX    TMP DP  RH WIND       PRES   REMARKS
SUPERIOR ARPT  SUNNY     80  59  49 NW14G20   30.00R HX  81
ASHLAND        MOSUNNY   77  63  61 N12       30.02R
HAYWARD        MOSUNNY   79  60  52 N10G20    30.02R HX  80
SIREN          PTSUNNY   80  60  50 NW10      30.03R HX  80
RICE LAKE      PTSUNNY   79  60  52 N8        30.04R HX  80
LADYSMITH      PTSUNNY   79  64  61 W10       30.03S HX  81
EAU CLAIRE     NOT AVBL
MENOMONIE      PTCLDY    81  62  52 NW10G20   30.01R HX  82
NEW RICHMOND   PTSUNNY   79  62  55 N7        30.04R HX  81
OSCEOLA        PTSUNNY   80  62  54 NW9G16    30.06R HX  82
$$

WIZ003>005-009-010-017-018-222200-
NORTH CENTRAL WISCONSIN

CITY           SKY/WX    TMP DP  RH WIND       PRES   REMARKS
WOODRUFF       CLOUDY    72  67  84 NW12      30.01R
RHINELANDER    CLOUDY    73  63  70 NW13G20   30.00R
EAGLE RIVER    RAIN      71  62  73 NW10G17   29.99R
LAND O LAKES   CLOUDY    69  65  85 NW5       30.00R
PHILLIPS       PTSUNNY   74  65  71 NW8       30.01R
TOMAHAWK       CLOUDY    74  62  66 NW12G22   30.01R
MEDFORD        CLOUDY    76  65  69 NW12      30.00R
MERRILL        PTSUNNY   79  67  64 NW10      29.96R HX  81
$$

WIZ029-030-035-036-043>047-222200-
CENTRAL WISCONSIN

CITY           SKY/WX    TMP DP  RH WIND       PRES   REMARKS
WAUSAU         MOSUNNY   83  64  52 NW16      29.94R HX  84
MOSINEE        NOT AVBL
MARSHFIELD     MOSUNNY   81  66  60 NW15      29.97R HX  83
STEVENS POINT  SUNNY     84  64  51 NW13      29.95R HX  85
WAUPACA        MOSUNNY   94  63  36 W14       29.90S HX  95
WAUTOMA        NOT AVBL
WISC RAPIDS    SUNNY     88  66  48 NW17      29.97R HX  90
CAMP DOUGLAS   NOT AVBL
$$

WIZ011>013-019>022-031-037>040-048>050-222200-
NORTHEAST WISCONSIN

CITY           SKY/WX    TMP DP  RH WIND       PRES   REMARKS
ANTIGO         PTSUNNY   82  66  58 NW13G21   29.95R HX  83
STURGEON BAY   MOSUNNY   90  73  58 W13       29.86S HX  98
GREEN BAY      PTSUNNY   89  73  59 NW15G23   29.87R HX  97
MANITOWOC      NOT AVBL
APPLETON       PTSUNNY   90  72  55 NW17G23   29.89R HX  96
CLINTONVILLE   SUNNY     90  61  37 NW16      29.89R HX  89
OSHKOSH        MOSUNNY   91  74  57 W10       29.88S HX 100
$$

WIZ032>034-041-042-053>061-222200-
SOUTHWEST WISCONSIN

CITY           SKY/WX    TMP DP  RH WIND       PRES   REMARKS
LA CROSSE      MOSUNNY   89  67  47 NW15      29.97R HX  92
SPARTA         MOSUNNY   87  65  48 NW14G24   29.98R HX  89
VIROQUA        FAIR      86  70  59 NW14      29.99R HX  90
BOSCOBEL       MOSUNNY   96  73  47 NW12      29.92F HX 105
PRAIRIE DU CHI SUNNY     93  68  44 W9G17     29.92F HX  97
PLATTEVILLE    FAIR      89  77  67 W10       29.95F HX 102
$$

WIZ056-057-062-063-064-067-068-222200-
SOUTH CENTRAL WISCONSIN

CITY           SKY/WX    TMP DP  RH WIND       PRES   REMARKS
BARABOO/DELLS  MOSUNNY   91  70  49 W7        29.93S HX  96
LONE ROCK      NOT AVBL
WATERTOWN      CLOUDY    87  77  72 W9G16     29.91S HX  98
MADISON        PTSUNNY   92  74  55 W9        29.92S HX 101
MIDDLETON      MOCLDY    91  73  54 NW12      29.93S HX  99
MONROE         PTSUNNY   86  75  70 W15G22    29.95F HX  95
JANESVILLE     PTSUNNY   88  73  62 SW16      29.93S HX  96
$$

WIZ051-052-058>065-066-070>072-222200-
SOUTHEAST WISCONSIN

CITY           SKY/WX    TMP DP  RH WIND       PRES   REMARKS
MILWAUKEE      CLOUDY    87  73  62 SW14      29.91R HX  94
WAUKESHA       PTSUNNY   84  73  70 SW10      29.94R HX  91
MILWAUKEE/TIMM CLOUDY    86  72  62 SW13      29.91R HX  92
RACINE         CLOUDY    86  74  67 W13G20    29.93R HX  94
BURLINGTON     CLOUDY    83  74  73 SW12      29.94R HX  89
KENOSHA        CLOUDY    85  74  69 SW16G23   29.94R HX  92
FOND DU LAC    MOSUNNY   89  72  56 W9G18     29.90R HX  96
SHEBOYGAN      MOSUNNY   88  74  63 W12       29.89S HX  96
WEST BEND      PTSUNNY   88  72  58 W9        29.91S HX  94
JUNEAU         PTSUNNY   87  60  39 SW14      29.93R HX  87
$$

LSZ147-162-222200-
LAKE SUPERIOR

STATION/POSITION TIME  TEMP    WIND        PRES    WAVE
                       AIR SEA DIR/SP/G            HT/PER
                 (UTC) (F)     (DEG/KT/KT) (MB)    (FT/S)
W MID LAKE BUOY  1950   50 40  290/  8/ 10 1013.5R   3/ 5
PORT WING        2040   69     340/  2/  3 1016.3R
SAXON HARBOR     2000          300/  9/ 11 1015.6R
$$

LMZ867-665-643>646-222200-
LAKE MICHIGAN

STATION/POSITION TIME  TEMP    WIND        PRES    WAVE
                       AIR SEA DIR/SP/G            HT/PER
                 (UTC) (F)     (DEG/KT/KT) (MB)    (FT/S)
N MID LAKE BUOY  1950   62 57  210/ 19/ 23 1009.2R   6/ 6
NORTHPORT PIER   2000          210/  7/ 17 1009.8R
KEWAUNEE LAKESHO 2000   58     160/  6/  9 1011.8R
SHEBOYGAN LAKESH 2000   72     170/ 14/ 16 1011.7R
PORT WASHINGTON  2000   67      60/  3/  8 1012.5R
ATWATER BUOY     2000   71     220/ 10     1013.1R
MILWAUKEE LAKESH 2000   85     230/ 12/ 15   N/A
S MID LAKE BUOY  2050   73 68  180/ 16/ 17 1012.7F   2/ 4
KENOSHA   LAKESH 2000   88     210/ 11/ 19   N/A
$$

TC  - TEMPERATURE IN CELSIUS
VSB - VISIBILITY IN STATUTE MILES
WCI - WIND CHILL INDEX
HX  - HEAT INDEX



USA.gov is the U.S. government's official web portal to all federal, state and local government web resources and services.